Regional Weather Roundup
Issued by NWS

Home | Current Version | Previous Version | Text Only | Print | Product List | Glossary Off
Versions: 1 2 3 4 5 6 7 8 9 10 11 12 13 14 15 16 17 18 19 20 21 22 23 24 25 26 27 28 29 30 31 32 33 34 35 36 37 38 39 40 41 42 43 44 45 46 47 48 49 50

000
ASUS43 KMKX 270411
RWRWI

WISCONSIN REGIONAL WEATHER ROUNDUP
NATIONAL WEATHER SERVICE MILWAUKEE/SULLIVAN WI
1100 PM CDT MON JUN 26 2017

NOTE: "FAIR" INDICATES FEW OR NO CLOUDS BELOW 12,000 FEET WITH NO
SIGNIFICANT WEATHER AND/OR OBSTRUCTIONS TO VISIBILITY.

WIZ001-002-006>008-014>016-023>028-270500-
NORTHWEST WISCONSIN

CITY           SKY/WX    TMP DP  RH WIND       PRES   REMARKS
SUPERIOR ARPT  NOT AVBL
ASHLAND        CLOUDY    54  49  83 SW7       30.04F
HAYWARD        CLOUDY    55  51  86 SE3       30.08S
SIREN          CLEAR     50  48  93 CALM      30.08S
CUMBERLAND     CLEAR     50  46  87 CALM      30.09S
RICE LAKE      PTCLDY    53  52  95 CALM      30.10S FOG
CHETEK         CLEAR     50  50 100 CALM      30.09S
LADYSMITH      MOCLDY    55  49  80 W6        30.09S
EAU CLAIRE     CLEAR     52  48  86 SW3       30.09R
MENOMONIE      CLEAR     55  48  78 SW5       30.10S
NEW RICHMOND   CLEAR     54  49  85 CALM      30.11S
OSCEOLA        CLEAR     53  48  82 CALM      30.13S
$$

WIZ003>005-009-010-017-018-270500-
NORTH CENTRAL WISCONSIN

CITY           SKY/WX    TMP DP  RH WIND       PRES   REMARKS
MANITOWISH WTR CLEAR     46  46 100 CALM      30.04F
ARBOR VITAE    CLEAR     52  48  88 CALM      30.04F
WOODRUFF       CLEAR     52  48  88 CALM      30.04F
RHINELANDER    CLEAR     46  46 100 W3        30.06R
EAGLE RIVER    CLEAR     46  46 100 W3        30.04S
LAND O LAKES   CLEAR     45  44  97 CALM      30.05S FOG
PHILLIPS       PTCLDY    50  49  98 CALM      30.06S
TOMAHAWK       NOT AVBL
MEDFORD        CLEAR     51  47  85 W6        30.07S
MERRILL        CLEAR     47  46  97 CALM      30.07S
$$

WIZ029-030-035-036-043>047-270500-
CENTRAL WISCONSIN

CITY           SKY/WX    TMP DP  RH WIND       PRES   REMARKS
WAUSAU         CLEAR     52  47  83 CALM      30.06R
MOSINEE        CLEAR     52  46  82 W5        30.08R
MARSHFIELD     CLEAR     51  45  79 W6        30.07S
STEVENS POINT  PTCLDY    53  47  82 W5        30.08R
WAUPACA        CLEAR     55  48  80 CALM      30.07R
WAUTOMA        CLEAR     50  47  89 CALM      30.08S
WISC RAPIDS    CLEAR     51  47  86 CALM      30.09R
CAMP DOUGLAS   CLEAR     46  45  93 W5        30.09R
$$

WIZ011>013-019>022-031-037>040-048>050-270500-
NORTHEAST WISCONSIN

CITY           SKY/WX    TMP DP  RH WIND       PRES   REMARKS
ANTIGO         CLEAR     49  47  92 W5        30.06R
SHAWANO        PTCLDY    53  49  86 CALM      30.04S
OCONTO         CLEAR     49  48  99 CALM      30.03S
STURGEON BAY     N/A     51  50  96 S3          N/A
GREEN BAY      CLEAR     53  52  96 SW5       30.04S
MANITOWOC      CLEAR     53  50  89 W7        30.05S
APPLETON       PTCLDY    54  46  76 SW5       30.04S
CLINTONVILLE   PTCLDY    52  45  76 W3        30.05S
OSHKOSH        CLEAR     54  48  80 SW5       30.05F
$$

WIZ032>034-041-042-053>061-270500-
SOUTHWEST WISCONSIN

CITY           SKY/WX    TMP DP  RH WIND       PRES   REMARKS
LA CROSSE      CLEAR     58  50  75 NE3       30.11R
SPARTA         CLEAR     47  46  96 CALM      30.11S
VIROQUA        CLEAR     57  47  68 CALM      30.12R
BOSCOBEL       CLEAR     52  48  86 CALM      30.12R
PRAIRIE DU CHI CLEAR     54  47  78 CALM      30.12R
PLATTEVILLE    CLEAR     58  45  63 W3        30.12S
$$

WIZ056-057-062-063-064-067-068-270500-
SOUTH CENTRAL WISCONSIN

CITY           SKY/WX    TMP DP  RH WIND       PRES   REMARKS
REEDSBURG      CLEAR     53  51  91 CALM      30.10R
BARABOO/DELLS  CLEAR     51  47  86 CALM      30.10R
LONE ROCK      PTCLDY    54  50  86 CALM      30.10S
MINERAL POINT  CLOUDY    57  46  67 CALM      30.11S
MADISON        MOCLDY    54  47  77 CALM      30.09R
MIDDLETON      CLEAR     50  49  97 CALM      30.10S
WATERTOWN      NOT AVBL
MONROE         CLEAR     59  43  55 CALM      30.10S
JANESVILLE     CLEAR     54  45  71 CALM      30.10R
$$

WIZ051-052-058>065-066-070>072-270500-
SOUTHEAST WISCONSIN

CITY           SKY/WX    TMP DP  RH WIND       PRES   REMARKS
MILWAUKEE      PTCLDY    59  49  69 NW6       30.08R
WAUKESHA       CLEAR     52  46  82 CALM      30.09S
MILWAUKEE/TIMM CLEAR     54  45  71 W3        30.08S
RACINE         CLEAR     57  46  66 NW3       30.09R
KENOSHA        CLEAR     52  46  80 W5        30.08R
FOND DU LAC    CLEAR     53  47  79 SW6       30.07S
SHEBOYGAN      CLEAR     49  49 100 S3        30.06S
WEST BEND      CLEAR     50  50 100 CALM      30.07S
JUNEAU         CLEAR     51  47  84 CALM      30.09S
$$

LSZ147-162-270500-
LAKE SUPERIOR

STATION/POSITION TIME  TEMP    WIND        PRES    WAVE
                       AIR SEA DIR/SP/G            HT/PER
                 (UTC) (F)     (DEG/KT/KT) (MB)    (FT/S)
W MID LAKE BUOY  0350   45 39  280/ 10/ 10 1016.1R   1/ 3
DEVILS ISLAND    0400   54     240/ 13/ 15 1016.9R
SAXON HARBOR     0340   56     200/  4/  7 1016.6S
$$

LMZ867-665-643>646-270500-
LAKE MICHIGAN

STATION/POSITION TIME  TEMP    WIND        PRES    WAVE
                       AIR SEA DIR/SP/G            HT/PER
                 (UTC) (F)     (DEG/KT/KT) (MB)    (FT/S)
CHAMBERS ISLAND  0340   54     220/  3/  6 1015.9S
S GREEN BAY BUOY 0400   60     250/ 10/ 10 1016.6
N MID LAKE BUOY  0350   56 56  230/  4/  6 1016.5R   1/ 3
NORTHPORT PIER   0340   56     260/  4/  5 1015.9S
KEWAUNEE LAKESHO 0348   53     300/  5/  6 1016.6S
SHEBOYGAN LAKESH 0400   55     260/  7/  7 1017.8R
PORT WASHINGTON  0330   57     300/  3/  6 1019.0S
ATWATER BUOY     0309   57 57  310/  8/  8 1018.3R
MILWAUKEE LAKESH 0350   58     310/  4/  5   N/A
S MID LAKE BUOY  0350   59 61  350/ 17/ 19 1017.6R   3/ 5
KENOSHA   LAKESH 0400   59     310/  5/  8 1018.3
$$

TC  - TEMPERATURE IN CELSIUS
VSB - VISIBILITY IN STATUTE MILES
WCI - WIND CHILL INDEX
HX  - HEAT INDEX





USA.gov is the U.S. government's official web portal to all federal, state and local government web resources and services.